Simultaneous Nadir Overpasses (SNOs) Predictions

Prediction of SNOs between GOES-14 and NPP Satellite Orbit:

Table of predicted SNOs for the next 14.0 days since TLE Epoch: 10/31/2020
Index Date Time (GOES-14) GOES-14 Lat,Lon NPP Lat,Lon Distance(km) Time Diff (sec)
1 10/31/2020 20:23:27 -0.12,-104.25 -0.10,-104.26 1.90 80
2 11/03/2020 08:26:29 0.11,-104.38 0.27,-105.00 70.96 80
3 11/04/2020 08:05:03 0.13,-104.37 -0.73,-100.46 444.43 80
4 11/05/2020 20:26:59 -0.09,-104.22 -0.46,-105.76 176.46 80
5 11/06/2020 20:10:53 -0.11,-104.22 0.54,-101.23 340.59 80
6 11/08/2020 08:32:41 0.07,-104.37 0.56,-106.52 244.75 80
7 11/09/2020 08:11:16 0.09,-104.35 -0.44,-101.98 270.50 80
8 11/10/2020 20:33:11 -0.06,-104.18 -0.75,-107.28 353.72 80
9 11/11/2020 20:17:06 -0.07,-104.18 0.25,-102.75 163.39 80
10 11/13/2020 08:38:54 0.04,-104.36 0.84,-108.04 418.46 80
